Overview Statistics Trail Chart Weather Telemetry Raw packets
 

This is the latest recevied weather packets stored in our database for station/object W8KVG. If no packets are shown the sender has not sent any weather packets the latest 10 day(s).

<< 33 34 35 36 37 38 39 >>
Time Temp. Humidity Pressure Rain* Wind** Luminosity Snow
1777730759 4.44° C 96% 1014.6 hPa 0 mm - 33 W/m² -
1777730455 5° C 96% 1014.4 hPa 0 mm - 31 W/m² -
1777730150 5° C 96% 1014.5 hPa 0 mm - 77 W/m² -
1777729847 5° C 96% 1014.5 hPa 0 mm - 114 W/m² -
1777729544 5° C 98% 1014.5 hPa 0 mm - 124 W/m² -
1777729241 4.44° C 97% 1014.3 hPa 0 mm - 73 W/m² -
1777728938 4.44° C 97% 1014.3 hPa 0 mm - 57 W/m² -
1777728634 4.44° C 97% 1014.2 hPa 0 mm - 39 W/m² -
1777728332 5° C 97% 1014.5 hPa 0 mm - 50 W/m² -
1777728029 4.44° C 97% 1014.4 hPa 0 mm - 97 W/m² -
1777727726 3.89° C 97% 1014.5 hPa 0 mm - 42 W/m² -
1777727422 3.89° C 97% 1014.5 hPa 0 mm - 28 W/m² -
1777727120 4.44° C 97% 1014.6 hPa 0 mm - 19 W/m² -
1777726818 4.44° C 97% 1014.6 hPa 0 mm - 19 W/m² -
1777726514 3.89° C 97% 1014.7 hPa 0 mm - 18 W/m² -
1777726212 3.89° C 97% 1014.5 hPa 0 mm - 20 W/m² -
1777725908 3.89° C 97% 1014.7 hPa 0.51 mm - 13 W/m² -
1777725606 3.89° C 97% 1014.7 hPa 0.51 mm - 12 W/m² -
1777725304 3.89° C 97% 1014.8 hPa 0 mm - 17 W/m² -
1777725000 3.89° C 97% 1014.7 hPa 0 mm - 25 W/m² -
1777724696 3.89° C 97% 1014.6 hPa 0 mm - 28 W/m² -
1777724394 3.89° C 97% 1014.9 hPa 0 mm - 17 W/m² -
1777724091 3.33° C 97% 1014.7 hPa 0 mm - 22 W/m² -
1777723789 3.89° C 98% 1014.7 hPa 0 mm - 18 W/m² -
1777723484 3.33° C 98% 1014.8 hPa 0 mm - 12 W/m² -

* Rain latest hour (hover to see other rain measurements)
** Current wind speed in m/s (hover to see current wind gust speed)